[[{"header":{"parameterUnit":"m.s-1","parameterCategory":1,"la1":30.2991,"la2":30.254,"lo1":-89.0895,"lo2":-89.0444,"dy":0.0017,"dx":0.0017,"nx":28,"ny":28,"refTime":"2023-09-06T21:00:00:Z","depth":0,"parameterNumber":2,"parameterNumberName":"U-component_of_WINDS"},"data":[0,0,0,0,0,0,0,0,0,0,0,0,0,0,0,0,0,0,0,0,0,0,0,0,0,0,0,0,0,0,0,0,0,0,0,0,0,0,0,0,0,0,0,0,0,0,0,0,0,0,0,0,0,0,0,0,0,0,-3.5192,-3.5191,0,-3.5137,-3.5136,-3.5135,-3.4989,-3.4986,-3.4983,-3.498,-3.4928,-3.4929,-3.4931,0,0,0,0,0,0,0,0,0,0,0,0,0,-3.5177,-3.5179,-3.5192,-3.5191,-3.519,-3.5137,-3.5136,-3.5135,-3.499,-3.4986,-3.4982,-3.4979,-3.4927,-3.4929,-3.4931,0,0,0,0,0,0,0,0,0,0,0,0,0,-3.5159,-3.5179,-3.5192,-3.5111,-3.5104,-3.5137,-3.5136,-3.5135,-3.4991,-3.4986,-3.4981,-3.4977,-3.4927,-3.4929,-3.4931,-3.504,0,0,-3.4938,-3.4939,0,0,0,0,0,0,0,0,-3.5161,-3.516,-3.5124,-3.5117,-3.5108,-3.5065,-3.5112,-3.5103,-3.4992,-3.5034,-3.498,-3.4975,-3.4978,-3.4975,-3.4976,-3.5037,-3.5035,-3.4939,-3.494,-3.4941,-3.4942,0,0,0,0,0,0,0,-3.5162,-3.5162,-3.517,-3.5124,-3.5114,-3.508,-3.5072,-3.5109,-3.5033,-3.503,-3.5019,-3.5014,-3.4973,-3.4974,-3.4973,-3.5034,-3.4939,-3.4941,-3.4942,-3.4943,-3.5186,-3.5191,0,0,0,0,0,0,-3.5174,-3.5164,-3.5172,-3.5168,-3.5123,-3.5084,-3.5075,-3.5084,-3.5032,-3.502,-3.5018,-3.5008,-3.4972,-3.4971,-3.4971,-3.5096,-3.4941,-3.4943,-3.4944,-3.5181,-3.5187,-3.5193,0,0,0,0,0,0,-3.5174,-3.5176,-3.5174,-3.5163,-3.516,-3.5089,-3.51,-3.5085,-3.5086,-3.5023,-3.501,-3.5033,-3.4968,-3.4968,-3.5024,-3.5092,-3.4944,-3.4946,-3.5175,-3.5183,-3.519,-3.5347,0,0,0,0,0,0,-3.5175,-3.5177,-3.5216,-3.5165,-3.5161,-3.5227,-3.5104,-3.5087,-3.509,-3.5075,-3.5034,-3.5022,-3.4965,-3.5022,-3.5027,-3.5093,-3.4948,-3.5168,-3.5178,-3.5187,-3.5335,-3.5359,-3.5379,0,0,0,0,0,-3.5175,-3.5262,-3.5218,-3.522,-3.5208,-3.5231,-3.5229,-3.5159,-3.5096,-3.5135,-3.5096,-3.5024,-3.5084,-3.5029,-3.5033,-3.5101,-3.5164,-3.5176,-3.5187,-3.5326,-3.5354,-3.5379,0,0,0,0,0,0,-3.5323,-3.5254,-3.5204,-3.5278,-3.5261,-3.5206,-3.5253,-3.5192,-3.5193,-3.518,-3.5095,-3.5087,-3.5157,-3.5134,-3.5073,-3.5205,-3.5113,-3.5126,-3.5217,-3.5244,-3.5265,-3.5269,-3.495,0,0,0,0,0,-3.5364,-3.5387,-3.5326,-3.5397,-3.5391,-3.5325,-3.5332,-3.528,-3.526,-3.5252,-3.5216,-3.5201,-3.5217,-3.5229,-3.524,-3.5332,-3.5323,-3.5381,-3.5403,-3.5422,-3.5434,-3.5484,-3.5511,-3.523,-3.523,-3.523,0,0,-3.545,-3.5415,-3.5434,-3.5426,-3.5407,-3.5435,-3.5319,-3.5352,-3.5373,-3.5257,-3.5309,-3.5283,-3.5261,-3.5336,-3.5368,-3.532,-3.551,-3.5436,-3.5451,-3.5453,-3.5499,-3.5526,-3.5549,-3.5238,-3.5236,-3.5235,0,0,-3.5619,-3.5595,-3.5652,-3.5636,-3.5609,-3.5564,-3.5579,-3.5534,-3.5512,-3.5562,-3.5477,-3.5502,-3.553,-3.5518,-3.5516,-3.5687,-3.5622,-3.5693,-3.5808,-3.5858,-3.588,-3.5899,-3.5962,-3.5986,-3.5705,-3.5706,-3.5706,0,-3.5729,-3.5765,-3.569,-3.5729,-3.573,-3.5627,-3.5686,-3.5675,-3.5654,-3.5657,-3.5604,-3.564,-3.5617,-3.569,-3.5732,-3.5734,-3.5749,-3.5697,-3.5883,-3.5901,-3.5918,-3.5977,-3.6001,-3.5715,-3.5714,-3.5713,-3.5712,0,-3.5903,-3.593,-3.598,-3.5962,-3.5968,-3.6018,-3.5952,-3.5968,-3.5918,-3.588,-3.5935,-3.5905,-3.5909,-3.5923,-3.5874,-3.5991,-3.5962,-3.5898,-3.5803,-3.5955,-3.601,-3.6031,-3.5728,-3.5724,-3.5722,-3.572,0,0,-3.6162,-3.6104,-3.6123,-3.6115,-3.608,-3.6101,-3.6148,-3.6152,-3.6168,-3.6158,-3.6197,-3.6226,-3.6166,-3.6164,-3.6113,-3.6158,-3.6298,-3.6087,-3.6085,-3.6129,-3.6429,-3.6479,-3.6506,-3.6255,-3.6259,-3.6262,-3.6431,0,-3.6323,-3.6397,-3.6333,-3.6421,-3.6447,-3.6352,-3.6393,-3.6378,-3.6345,-3.6365,-3.6329,-3.6351,-3.627,-3.6269,-3.6308,-3.6273,-3.6358,-3.626,-3.6293,-3.6295,-3.6302,-3.6534,-3.6585,-3.6746,-3.6452,-3.6455,-3.6458,0,-3.6519,-3.6519,-3.661,-3.6572,-3.6581,-3.6619,-3.6619,-3.6638,-3.662,-3.6594,-3.6594,-3.6532,-3.6579,-3.6487,-3.6552,-3.6487,-3.6497,-3.6482,-3.6487,-3.6487,-3.6386,-3.6542,-3.6795,-3.682,-3.649,-3.6488,-3.6485,0,-3.6702,-3.6724,-3.6781,-3.6777,-3.6734,-3.6764,-3.6748,-3.6725,-3.6733,-3.6735,-3.6739,-3.6747,-3.6751,-3.676,-3.6703,-3.6641,-3.6777,-3.6679,-3.6758,-3.676,-3.679,-3.6789,-3.705,-3.6797,-3.6796,-3.6796,-3.6795,0,-3.6888,-3.6948,-3.6863,-3.6899,-3.6964,-3.6891,-3.6959,-3.6933,-3.6915,-3.6946,-3.6865,-3.6896,-3.6819,-3.6844,-3.68,-3.6862,-3.6865,-3.6846,-3.6834,-3.6854,-3.6857,-3.6859,-3.6847,-3.6802,-3.6801,-3.6799,-3.6798,0,-3.7101,-3.7046,-3.7104,-3.7059,-3.705,-3.7101,-3.7063,-3.7096,-3.706,-3.7101,-3.7106,-3.705,-3.7075,-3.7019,-3.7036,-3.7007,-3.7096,-3.7066,-3.7102,-3.7093,-3.7176,-3.717,-3.7448,-3.7482,-3.7207,-3.7209,-3.7211,0,-3.7224,-3.7268,-3.7229,-3.7244,-3.7232,-3.7257,-3.7265,-3.7196,-3.7209,-3.7194,-3.723,-3.7248,-3.7259,-3.7305,-3.7266,-3.728,-3.7251,-3.7348,-3.7252,-3.7272,-3.7254,-3.7252,-3.7258,-3.7367,-3.737,-3.7373,-3.7375,0,-3.7448,-3.742,-3.7434,-3.744,-3.7452,-3.7454,-3.745,-3.7467,-3.7395,-3.7414,-3.7438,-3.7447,-3.7466,-3.7486,-3.7492,-3.7478,-3.7417,-3.7406,-3.7425,-3.7446,-3.7466,-3.7458,-3.7157,-3.74,-3.7397,-3.7395,-3.7394,-3.7393,-3.7621,-3.7656,-3.7636,-3.7655,-3.7646,-3.7645,-3.7674,-3.7643,-3.7661,-3.767,-3.763,-3.7665,-3.765,-3.7652,-3.7645,-3.7673,-3.7629,-3.7657,-3.7664,-3.7672,-3.7686,-3.7462,-3.7673,-3.7673,-3.7672,-3.7671,-3.7671,0,-3.7842,-3.7825,-3.7844,-3.7841,-3.7858,-3.7798,-3.7792,-3.7811,-3.7842,-3.7833,-3.7846,-3.7877,-3.7897,-3.7862,-3.7878,-3.7907,-3.788,-3.7914,-3.7911,-3.791,-3.7723,-3.7705,-3.7936,-3.7936,-3.7936,-3.7936,-3.7936,-3.7936,-3.7959,-3.8017,-3.7988,-3.8042,-3.8025,-3.8057,-3.806,-3.806,-3.8053,-3.809,-3.8107,-3.8084,-3.8066,-3.808,-3.8098,-3.8087,-3.8098,-3.8142,-3.8122,-3.7948,-3.7922,-3.7898,-3.7881,-3.8145,-3.8145,-3.8306,-3.8308,-3.8309]},{"header":{"parameterUnit":"m.s-1","parameterCategory":1,"la1":30.2991,"la2":30.254,"lo1":-89.0895,"lo2":-89.0444,"dy":0.0017,"dx":0.0017,"nx":28,"ny":28,"refTime":"2023-09-06T21:00:00:Z","depth":0,"parameterNumber":3,"parameterNumberName":"V-component_of_WINDS"},"data":[0,0,0,0,0,0,0,0,0,0,0,0,0,0,0,0,0,0,0,0,0,0,0,0,0,0,0,0,0,0,0,0,0,0,0,0,0,0,0,0,0,0,0,0,0,0,0,0,0,0,0,0,0,0,0,0,0,0,1.9532,1.9533,0,1.9575,1.9575,1.9576,1.9661,1.9662,1.9664,1.9666,1.9704,1.9704,1.9703,0,0,0,0,0,0,0,0,0,0,0,0,0,1.9521,1.9521,1.9532,1.9533,1.9533,1.9575,1.9575,1.9576,1.966,1.9662,1.9664,1.9666,1.9704,1.9704,1.9703,0,0,0,0,0,0,0,0,0,0,0,0,0,1.9541,1.9521,1.9532,1.958,1.9585,1.9574,1.9575,1.9576,1.966,1.9662,1.9665,1.9667,1.9705,1.9704,1.9703,1.9647,0,0,1.9701,1.97,0,0,0,0,0,0,0,0,1.9539,1.9541,1.9573,1.9577,1.9582,1.9615,1.9586,1.96,1.9659,1.9631,1.9666,1.9669,1.9672,1.9674,1.9676,1.9649,1.9651,1.97,1.97,1.97,1.9699,0,0,0,0,0,0,0,1.9538,1.954,1.9549,1.9573,1.9579,1.9599,1.9605,1.9589,1.9637,1.9634,1.964,1.9644,1.9675,1.9677,1.9678,1.9651,1.97,1.97,1.9699,1.9699,1.958,1.9577,0,0,0,0,0,0,1.953,1.9538,1.9547,1.955,1.9567,1.9597,1.9603,1.9602,1.9637,1.9645,1.9642,1.9648,1.9677,1.9679,1.968,1.9615,1.97,1.9699,1.9698,1.9583,1.9579,1.9576,0,0,0,0,0,0,1.9529,1.953,1.9546,1.9546,1.9549,1.9595,1.9592,1.9601,1.9603,1.9644,1.9652,1.9635,1.9679,1.9681,1.9655,1.9618,1.9698,1.9698,1.9586,1.9582,1.9578,1.9487,0,0,0,0,0,0,1.9529,1.9529,1.9509,1.9545,1.9549,1.9521,1.959,1.96,1.9602,1.961,1.9639,1.9646,1.9681,1.9656,1.9654,1.9618,1.9697,1.9589,1.9584,1.9579,1.9493,1.948,1.9469,0,0,0,0,0,1.9528,1.9481,1.9507,1.9508,1.9525,1.9518,1.9521,1.9563,1.9599,1.9578,1.9605,1.9645,1.9623,1.9652,1.9651,1.9615,1.9591,1.9585,1.9579,1.9499,1.9483,1.9469,0,0,0,0,0,0,1.9437,1.9486,1.9516,1.9479,1.9494,1.9533,1.9508,1.9545,1.9549,1.9556,1.9608,1.9613,1.958,1.9596,1.9627,1.9563,1.9614,1.9607,1.9553,1.9538,1.9526,1.9522,1.9696,0,0,0,0,0,1.9413,1.9405,1.9448,1.9411,1.9418,1.9461,1.946,1.9492,1.9509,1.9515,1.9539,1.9553,1.9549,1.9545,1.9544,1.9498,1.9504,1.9472,1.946,1.945,1.9442,1.9418,1.9404,1.9557,1.9557,1.9557,0,0,1.9362,1.9389,1.938,1.9394,1.9409,1.9398,1.9466,1.9452,1.9444,1.9513,1.9489,1.9508,1.9527,1.949,1.9475,1.9501,1.9402,1.9442,1.9434,1.9432,1.941,1.9396,1.9383,1.9553,1.9553,1.9554,0,0,1.9264,1.9284,1.9255,1.927,1.9293,1.9323,1.9316,1.935,1.9365,1.9344,1.9395,1.9387,1.9379,1.939,1.9395,1.9304,1.9341,1.9302,1.9237,1.9213,1.9201,1.919,1.9156,1.9143,1.9295,1.9295,1.9295,0,1.9197,1.9185,1.9235,1.9218,1.9222,1.9287,1.9257,1.9269,1.929,1.929,1.9321,1.9314,1.9331,1.9297,1.9275,1.9278,1.927,1.9297,1.9199,1.9189,1.918,1.9147,1.9134,1.929,1.9291,1.9291,1.9292,0,1.9101,1.9091,1.9065,1.9085,1.9087,1.9064,1.911,1.9105,1.9138,1.9165,1.9142,1.9165,1.917,1.9165,1.9196,1.9136,1.9152,1.919,1.9242,1.9159,1.9129,1.9117,1.9283,1.9285,1.9286,1.9287,0,0,1.8942,1.8993,1.8982,1.8992,1.9024,1.9017,1.8997,1.9004,1.8998,1.9011,1.8994,1.8988,1.9024,1.9029,1.9063,1.9042,1.8966,1.9083,1.9084,1.9058,1.8899,1.8868,1.8852,1.8993,1.8991,1.8989,1.8897,0,1.8848,1.8817,1.8863,1.8821,1.8812,1.8875,1.8858,1.8875,1.89,1.8895,1.8923,1.8917,1.8966,1.897,1.8952,1.8979,1.8934,1.8987,1.8975,1.8974,1.8965,1.8837,1.8804,1.8715,1.8886,1.8884,1.8883,0,1.8733,1.8743,1.87,1.8736,1.8734,1.8717,1.8727,1.8723,1.8743,1.8763,1.877,1.8811,1.8793,1.8847,1.8822,1.8856,1.8855,1.8868,1.8865,1.8863,1.892,1.8828,1.8688,1.8673,1.8865,1.8867,1.8868,0,1.8618,1.8621,1.8596,1.8603,1.8644,1.8631,1.8647,1.8671,1.8672,1.8681,1.8682,1.8688,1.869,1.8694,1.8735,1.8771,1.8704,1.8761,1.8718,1.8716,1.8697,1.8697,1.8551,1.8702,1.8702,1.8702,1.8703,0,1.8506,1.8477,1.8544,1.8528,1.8497,1.8552,1.8519,1.8542,1.8563,1.8552,1.8608,1.8596,1.8653,1.8647,1.8679,1.8652,1.8654,1.8667,1.8676,1.866,1.8658,1.8657,1.8663,1.8699,1.87,1.87,1.8701,0,1.837,1.8415,1.8391,1.8434,1.8444,1.8419,1.8455,1.8441,1.8472,1.8457,1.8456,1.8503,1.8499,1.8542,1.8546,1.8568,1.8524,1.8545,1.8517,1.8522,1.8475,1.8478,1.8321,1.8302,1.8467,1.8466,1.8464,0,1.8294,1.8273,1.8315,1.8312,1.8326,1.8321,1.8323,1.8377,1.8376,1.84,1.8383,1.8385,1.8388,1.8378,1.8411,1.8415,1.8434,1.8379,1.8434,1.842,1.843,1.8429,1.8426,1.8366,1.8364,1.8362,1.8361,0,1.8153,1.8177,1.8179,1.8188,1.819,1.82,1.8213,1.8208,1.8266,1.8263,1.826,1.8263,1.8269,1.8268,1.8278,1.8294,1.8336,1.8344,1.8333,1.8315,1.8299,1.8304,1.8482,1.8346,1.8347,1.8348,1.8349,1.835,1.8043,1.8027,1.8054,1.8054,1.8071,1.8083,1.8072,1.8102,1.8102,1.8111,1.8143,1.8135,1.8157,1.8176,1.8188,1.8182,1.8208,1.8194,1.819,1.8184,1.8174,1.8303,1.8184,1.8185,1.8185,1.8186,1.8186,0,1.7902,1.7924,1.7924,1.7942,1.7942,1.7985,1.8003,1.7999,1.7992,1.8011,1.8014,1.8011,1.8012,1.8047,1.8051,1.8039,1.8059,1.8038,1.8038,1.804,1.8152,1.8159,1.8023,1.8023,1.8023,1.8023,1.8023,1.8023,1.7829,1.7804,1.7832,1.7816,1.7838,1.7831,1.7837,1.7848,1.7863,1.7858,1.786,1.7884,1.7909,1.7916,1.7919,1.7929,1.7926,1.7899,1.7915,1.8017,1.8033,1.8048,1.8055,1.7899,1.7899,1.7804,1.7804,1.7803]}]]